Flag for Laos Weather past 2 weeks in Vientiane, Laos

Now
81 °F

Fog.


Feels Like: 83 °F
Forecast: 74 / 92 °F
Wind: 2 mph from North

Location: Vientiane Airport

Current Time: Mar 1, 2015 at 11:50:51 PM

Latest Report: Mar 1, 2015 at 11:30 PM


Visibility: 2 mi

Pressure: 29.89 "Hg

Humidity: 66%

Dew point: 68 °F

Location of VientianeLocation

Historic Weather in Vientiane — Graph

°F

Vientiane temperature yesterday

Maximum temperature yesterday: 97 °F (at 3:00 PM)
Minimum temperature yesterday: 73 °F (at 6:00 AM)
Average temperature yesterday: 86 °F

Past Weeks' High & Low Weather Summary

 TemperatureHumidityPressure
High97 °F (Feb 26, 3:30 PM)100% (Feb 19, 6:00 AM)30.01 "Hg (Feb 19, 6:00 AM)
Low68 °F (Feb 15, 7:00 AM)36% (Feb 15, 4:00 PM)29.71 "Hg (Feb 25, 3:00 PM)
Average81 °F69%29.86 "Hg
* Reported Feb 14 10:00 PM — Mar 1 10:00 PM, Vientiane, Weather by CustomWeather, © 2015

Note: Actual official high and low records may vary slightly from our data, if they occured in-between our weather recording intervals... More about our weather records

Advertising

Vientiane weather history for previous 24 hours

 ConditionsComfort  
Time TempWeatherWind HumidityBarometerVisibility
10:00 PM
Sun, Mar 1
82 °FFog.2 mph62%29.89 "Hg2 mi
9:30 PM82 °FFog.2 mph66%29.89 "Hg2 mi
9:00 PM82 °FFog.2 mph66%29.89 "Hg2 mi
8:30 PM90 °FFog.2 mph52%29.80 "Hg3 mi
8:00 PM90 °FFog.2 mph52%29.80 "Hg3 mi
7:30 PM90 °FFog.2 mph52%29.80 "Hg3 mi
7:00 PM90 °FFog.2 mph52%29.80 "Hg3 mi
6:30 PM91 °FPassing clouds.5 mph59%29.80 "Hg3 mi
6:00 PM91 °FPartly sunny.5 mph59%29.80 "Hg3 mi
5:30 PM95 °FClear.5 mph41%29.80 "Hg5 mi
5:00 PM95 °FClear.5 mph41%29.80 "Hg5 mi
4:30 PM97 °FClear.5 mph37%29.80 "Hg5 mi
4:00 PM97 °FClear.5 mph37%29.80 "Hg5 mi
3:30 PM93 °FClear.5 mph44%29.86 "Hg5 mi
3:00 PM93 °FClear.5 mph44%29.86 "Hg5 mi
2:30 PM93 °FClear.5 mph44%29.86 "Hg5 mi
1:30 PM90 °FClear.2 mph49%29.89 "Hg5 mi
1:00 PM90 °FClear.2 mph49%29.89 "Hg5 mi
12:00 PM86 °FClear.5 mph49%29.92 "Hg4 mi
11:00 AM84 °FClear.5 mph51%29.95 "Hg4 mi
10:30 AM82 °FClear.2 mph55%29.95 "Hg4 mi
10:00 AM82 °FClear.2 mph55%29.95 "Hg4 mi
9:30 AM79 °FFog.2 mph54%29.95 "Hg3 mi
9:00 AM79 °FFog.2 mph54%29.95 "Hg3 mi
8:30 AM73 °FFog.2 mph65%29.92 "Hg2 mi
8:00 AM73 °FFog.2 mph65%29.92 "Hg2 mi
7:30 AM73 °FFog.2 mph69%29.89 "Hg2 mi
7:00 AM72 °FFog.2 mph73%29.89 "Hg2 mi
6:30 AM72 °FFog.2 mph69%29.89 "Hg2 mi
6:00 AM72 °FFog.2 mph69%29.86 "Hg2 mi
11:00 PM
Sat, Feb 28
81 °FFog.2 mph70%29.86 "Hg2 mi
Weather by CustomWeather, © 2015

See weather overviewHow to use our weather pages